Tracking 33195 objects as of 8-Feb-2026
HD Live streaming from Space Station
objects crossing your sky now

AC1-002

Track AC1-002 now!
10-day predictions


NORAD ID: 66745
Int'l Code: 2025-276CH
Perigee: 517.2 km
Apogee: 522.3 km
Inclination: 97.4 °
Period: 94.9 minutes
Semi major axis: 6890 km
RCS: Unknown
Launch date: November 28, 2025
Source: United Kingdom (UK)
Launch site: AIR FORCE WESTERN TEST RANGE (AFWTR)
Your satellite tracking list
Your tracking list is empty




NASA's NSSDC Master Catalog

Two Line Element Set (TLE):
1 66745U 25276CH  26039.10396838  .00003205  00000-0  16203-3 0  9993
2 66745  97.4327 114.8484 0003736  85.1510 275.0150 15.17755767 10823
Source of the keplerian elements: AFSPC